Flag for U.S.A. Weather past 2 weeks in Pierre, South Dakota, U.S.A.

Now
21 °F

Clear.


Feels Like: 10 °F
Forecast: 23 / 48 °F
Wind: 10 mph from Southeast

Location: Pierre Regional Airport

Current Time: Jan 30, 2015 at 8:55:36 AM

Latest Report: Jan 30, 2015 at 7:53 AM


Visibility: 10 mi

Pressure: 30.34 "Hg

Humidity: 88%

Dew point: 18 °F

Location of PierreLocation

Historic Weather in Pierre — Graph

°F

Pierre temperature yesterday

Maximum temperature yesterday: 39 °F (at 2:53 PM)
Minimum temperature yesterday: 20 °F (at 9:53 PM)
Average temperature yesterday: 33 °F

Past Weeks' High & Low Weather Summary

 TemperatureHumidityPressure
High58 °F (Jan 27, 3:53 PM)100% (Jan 28, 6:53 AM)30.53 "Hg (Jan 28, 6:53 AM)
Low17 °F (Jan 22, 7:53 AM)33% (Jan 26, 3:53 PM)29.60 "Hg (Jan 24, 3:53 PM)
Average36 °F71%30.02 "Hg
* Reported Jan 15 6:53 AM — Jan 30 6:53 AM, Pierre, Weather by CustomWeather, © 2014

Note: Actual official high and low records may vary slightly from our data, if they occured in-between our weather recording intervals... More about our weather records

Advertising

Pierre weather history for previous 24 hours

 ConditionsComfort  
Time TempWeatherWind HumidityBarometerVisibility
6:53 AM
Jan 30
21 °FClear.10 mph88%30.34 "Hg10 mi
5:53 AM20 °FClear.10 mph92%30.36 "Hg10 mi
4:53 AM21 °FClear.12 mph88%30.38 "Hg10 mi
3:53 AM21 °FClear.10 mph88%30.42 "Hg10 mi
2:53 AM21 °FClear.12 mph88%30.45 "Hg10 mi
1:53 AM21 °FClear.13 mph88%30.45 "Hg10 mi
12:53 AM22 °FClear.13 mph85%30.48 "Hg10 mi
11:53 PM
Jan 29
21 °FClear.9 mph88%30.51 "Hg10 mi
10:53 PM21 °FClear.9 mph88%30.52 "Hg10 mi
9:53 PM20 °FClear.6 mph85%30.53 "Hg10 mi
8:53 PM22 °FClear.7 mph85%30.53 "Hg10 mi
7:53 PM25 °FClear.8 mph81%30.53 "Hg10 mi
6:53 PM26 °FClear.6 mph74%30.52 "Hg10 mi
5:53 PM32 °FClear.No wind61%30.50 "Hg10 mi
4:53 PM38 °FSunny.6 mph51%30.50 "Hg10 mi
3:53 PM39 °FSunny.8 mph48%30.49 "Hg10 mi
2:53 PM39 °FSunny.13 mph48%30.50 "Hg10 mi
1:53 PM38 °FSunny.12 mph55%30.50 "Hg10 mi
12:53 PM37 °FScattered clouds.13 mph57%30.52 "Hg10 mi
11:53 AM36 °FOvercast.15 mph62%30.53 "Hg10 mi
10:53 AM35 °FOvercast.20 mph61%30.53 "Hg10 mi
9:53 AM33 °FSunny.14 mph66%30.50 "Hg10 mi
8:53 AM32 °FPartly sunny.9 mph79%30.49 "Hg10 mi
Weather by CustomWeather, © 2014

See weather overviewHow to use our weather pages